User: anonymous   Login
Location: Unspecified
(0.0000°N, 0.0000°E)
Time: 14:01:50
(UTC+01:00)
Language:

Ariane 42L R/B - Orbit

View from above orbital plane
View from above orbital plane
View from above satellite
View from above satellite

Ground track
Ground track

The orbit data is extracted from the following two-line orbital elements,

1 26299U 00020B   17017.09722773  .00000739  00000-0  28303-3 0  9991
2 26299   7.4655  73.8158 5932382 335.3122   5.2281  4.11087772212875
Epoch (UTC): 17 January 2017 02:20:00
Eccentricity: 0.5932382
inclination: 7.4655°
perigee height: 317 km
apogee height: 19847 km
right ascension of ascending node: 73.8158°
argument of perigee: 335.3122°
revolutions per day: 4.11087772
mean anomaly at epoch: 5.2281°
orbit number at epoch: 21287

The dashed part of the orbit path shows where the satellite is in the earth's shadow,  

DLR